Regional Weather Roundup
Issued by NWS

Home | Current Version | Previous Version | Text Only | Print | Product List | Glossary Off
Versions: 1 2 3 4 5 6 7 8 9 10 11 12 13 14 15 16 17 18 19 20 21 22 23 24 25 26 27 28 29 30 31 32 33 34 35 36 37 38 39 40 41 42 43 44 45 46 47 48 49 50

226
ASUS43 KDTX 040201
RWRMI
MICHIGAN HOURLY REGIONAL WEATHER ROUNDUP
NATIONAL WEATHER SERVICE DETROIT/PONTIAC MI
1000 PM EDT TUE MAY 03 2016

NOTE: "FAIR" INDICATES FEW OR NO CLOUDS BELOW 12,000 FEET WITH NO
SIGNIFICANT WEATHER AND/OR OBSTRUCTION TO VISIBILITY.

MIZ047>049-052>055-059>063-066>070-074>076-081>083-040300-
SOUTHEAST LOWER MICHIGAN

CITY           SKY/WX    TMP DP  RH WIND       PRES   REMARKS
ADRIAN         CLEAR     53  43  68 SW6       29.80S
ALMA           PTCLDY    55  35  47 S7        29.73F
ANN ARBOR      CLOUDY    54  38  54 SW6       29.78R
BAD AXE        CLOUDY    57  40  52 S9        29.72S
CARO           CLOUDY    58  37  45 SW7       29.72S
DETROIT CITY   CLEAR     53  41  63 S8        29.79S
DETROIT        PTCLDY    53  44  71 SE7       29.79S
FLINT          CLOUDY    59  36  42 S7        29.75S
GROSSE ILE     CLEAR     52  48  87 S7        29.78F
HILLSDALE      MOCLDY    54  35  48 S5        29.79S
HOWELL         PTCLDY    56  36  47 SW3       29.76F

CITY           SKY/WX    TMP DP  RH WIND       PRES   REMARKS
JACKSON        PTCLDY    53  39  59 SW3       29.77S
LAMBERTVILLE   CLEAR     55  40  56 S3        29.80F
LANSING        CLOUDY    56  35  45 SW7       29.76S
LAPEER         CLOUDY    56  36  48 S10       29.75S
MASON          MOCLDY    51  44  76 S7        29.76S
MONROE         CLEAR     52  46  82 S12       29.79S
MT. CLEMENS    CLEAR     48  45  87 S9        29.77S
PONTIAC        MOCLDY    56  43  61 S8        29.76S
PORT HOPE        N/A     59  38  45 S5        29.69F
PORT HURON     CLEAR     52  41  66 S8        29.78S
TRI CITIES     CLOUDY    58  37  45 SW7       29.73S
MIDLAND        FAIR      58  35  43 SW5       29.71S
TROY           CLEAR     55  42  61 S7        29.80S
SAGINAW HB     CLOUDY    55  37  50 SW6       29.72F
$$
MIZ043>046-050>051-056>058-064>065-071>073-077>080-040300-
SOUTHWEST LOWER MICHIGAN

CITY           SKY/WX    TMP DP  RH WIND       PRES   REMARKS
BATTLE CREEK   CLOUDY    54  38  54 S7        29.77F
BENTON HARBOR  CLOUDY    60  38  43 S5        29.75F
BIG RAPIDS     CLOUDY    56  33  41 SW6       29.70F
COLDWATER      CLOUDY    56  37  49 CALM      29.78F
FREMONT        FAIR      54  34  47 SW7       29.70F
HOLLAND        MOCLDY    58  37  45 S9        29.73F
GRAND RAPIDS   CLOUDY    57  39  51 S8        29.73F
IONIA          CLOUDY    56  35  43 S7        29.73F
KALAMAZOO      CLOUDY    57  37  47 SW7       29.76F
LUDINGTON      LGT RAIN  47  41  81 SW8       29.72S
MARSHALL       CLOUDY    57  34  43 SW3       29.77S
MOUNT PLEASANT CLEAR     57  37  46 S3        29.71F
MUSKEGON       CLOUDY    56  35  45 S16       29.70F
$$
MIZ016>042-040300-
NORTHERN LOWER MICHIGAN

CITY           SKY/WX    TMP DP  RH WIND       PRES   REMARKS
ALPENA         MOCLDY    57  38  48 NW5       29.69R
BEAVER ISLAND  RAIN      47  45  93 SW6       29.68F
BELLAIRE       LGT RAIN  50  44  79 CALM      29.72S
CADILLAC       CLOUDY    55  38  53 W12       29.70S
CHARLEVOIX     LGT RAIN  47  44  89 CALM      29.73F
FRANKFORT      DRIZZLE   46  42  85 CALM      29.69F
GAYLORD        CLOUDY    49  44  83 VRB3      29.70F
HARBOR SPRINGS DRIZZLE   43  41  94 CALM      29.71S
HOUGHTON LAKE  CLOUDY    58  37  45 SW10      29.70R
MANISTEE       CLOUDY    48  39  71 CALM      29.70F
OSCODA         CLOUDY    60  34  38 SW3       29.67F
PELLSTON       LGT RAIN  48  44  86 CALM      29.70S
ROGERS CITY    CLOUDY    51  42  71 NW12G20   29.69S
TRAVERSE CITY  CLOUDY    50  41  71 NE8       29.70R
$$
MIZ007>008-015-040300-
EASTERN UPPER MICHIGAN

CITY           SKY/WX    TMP DP  RH WIND       PRES   REMARKS
KINROSS          N/A     46  46 100 SW3       29.67S
MACKINAC ISLAN LGT RAIN  45  45 100 SW5       29.69S
NEWBERRY       MOCLDY    47  46  97 SW3       29.66S
S. S. MARIE    CLOUDY    48  45  89 CALM      29.66S
MUNISING         N/A     43  40  89 NW9       29.70R
$$
MIZ004>006-011>014-085-040300-
CENTRAL UPPER MICHIGAN

CITY           SKY/WX    TMP DP  RH WIND       PRES   REMARKS
MANISTIQUE     CLOUDY    46  45  97 CALM      29.67S
ESCANABA       CLOUDY    46  43  87 NE3       29.68S
MENOMINEE      CLOUDY    51  46  83 NW5       29.70S
SAWYER-GWINN   MOCLDY    43  41  93 CALM      29.68R
$$
MIZ001>003-009>011-084-040300-
WESTERN UPPER MICHIGAN

CITY           SKY/WX    TMP DP  RH WIND       PRES   REMARKS
IRON MOUNTAIN  CLOUDY    44  43  96 CALM      29.68S
HOUGHTON       CLOUDY    44  34  67 N21G31    29.75R
COPPER HARBOR    N/A     42  36  79 N16G24    29.74R
IRONWOOD         N/A     52  36  54 N9        29.73R
$$

ABBREVIATIONS USED IN REMARKS
   TC - TEMPERATURE IN CELSIUS
  WCI - WIND CHILL INDEX
   HX - HEAT INDEX
  VSB - VISIBILITY





USA.gov is the U.S. government's official web portal to all federal, state and local government web resources and services.